Location: *
(37.4917°N, 71.5558°E)
Time: 08:23:53
(UTC+00:00)

Cosmos 1066 Rocket - Pass Details

Date: 09 April 2020
Orbit: 798 x 895 km, 81.2° (Epoch: 03 June)

Event Time Altitude Azimuth Distance (km) Brightness Sun altitude
Exits shadow 23:29:36 - 192° (SSW) 3,137 6.8 -15.3°
Reaches altitude 10° 23:31:09 10° 194° (SSW) 2,551 6.4 -15.0°
Maximum altitude 23:36:58 75° 279° (W) 928 4.3 -14.0°
Drops below altitude 10° 23:42:51 10° 5° (N) 2,567 7.1 -12.9°
Sets 23:45:19 0° 7° (N) 3,504 7.8 -12.4°
